Search your local weather  

 
Advertise Here

Hazardous Weather Conditions

No active alerts for PHILADELPHIA, PENNSYLVANIA

Current Conditions: PHILADELPHIA, PENNSYLVANIA

Overcast


58.0 F

Last Updated on Nov 27 2020, 2:54 pm EST
Humidity: 62%
Wind Speed: W 6.9 mph
Barometer 30.03 in
Dewpoint: 45.0 F
Visibility: 10.00 mi
Precip: --
Heat Index: NA
Wind Chill: 57 F
Current conditions at:

Philadelphia, Northeast Philadelphia Airport, PA (KPNE)

Lat: 40.07889 Lon: -75.01361

Local Radar Image active severe weather and emergency alerts image image weather storm and storm spotter reports image weather observation monitoring service image
Local
Radar
Active
Alerts
Storm Reports Weather
Monitoring

Sign-up For Email & Text Message Weather Alert Notification Services


Advertise Here

Observation History for PHILADELPHIA, PENNSYLVANIA


Time Wind
(mph)
Vis
(mi)
Weather Precip (in) Temperature (F) Relative
Humidity
Wind
Chill
(F)
Heat
Index
(F)
Pressure
Air Dwpt altimeter
(in)
sea level
(mb)
2:54 pm EST W 6.9 10.00 Overcast -- 58.0 45.0 62% 57 NA 30.03 1016.8
1:54 pm EST W 8.1 10.00 Overcast -- 58.0 45.0 62% 56 NA 30.04 1017.1
12:54 pm EST NW 4.6 10.00 Overcast -- 59.0 44.1 58% 59 NA 30.05 1017.5
11:54 am EST NW 8.1 10.00 Overcast -- 60.0 44.1 56% 59 NA 30.06 1018.0
10:54 am EST W 3.5 10.00 Overcast -- 59.0 45.0 60% NA NA 30.09 1018.9
9:54 am EST N 4.6 10.00 Mostly Cloudy -- 57.0 46.0 67% 57 NA 30.10 1019.2
8:54 am EST NW 5.8 10.00 Mostly Cloudy -- 54.0 46.0 75% 53 NA 30.12 1019.8
7:54 am EST N 0.0 10.00 Fair -- 49.0 45.0 86% NA NA 30.11 1019.6
6:54 am EST N 0.0 10.00 Fair -- 49.0 44.1 83% NA NA 30.10 1019.2
5:54 am EST NW 5.8 10.00 Fair -- 50.0 44.1 80% 48 NA 30.09 1019.0
4:54 am EST NW 5.8 10.00 Mostly Cloudy -- 52.0 45.0 77% 50 NA 30.09 1018.9
3:54 am EST NW 4.6 10.00 Overcast -- 54.0 46.0 75% 53 NA 30.08 1018.6
10:54 pm EST W 3.5 10.00 Overcast -- 50.0 46.0 86% NA NA 30.08 1018.5
9:54 pm EST N 0.0 10.00 A Few Clouds -- 50.0 46.0 86% NA NA 30.07 1018.3
8:54 pm EST W 4.6 10.00 Overcast -- 55.0 46.9 74% 54 NA 30.07 1018.2
7:54 pm EST N 0.0 10.00 A Few Clouds -- 53.0 48.0 83% NA NA 30.06 1018.0
6:54 pm EST N 0.0 10.00 Fair -- 52.0 46.9 83% NA NA 30.05 1017.5

Regional Weather Observation

Pottstown, Pottstown Limerick Airport, PA (KPTW)

Overcast
55.0 F

Doylestown, Doylestown Airport, PA (KDYL)

Overcast
57.0 F

Quakertown Airport, PA (KUKT)

Overcast
55.0 F

Allentown Queen City Municipal Airport, PA (KXLL)

Overcast
55.0 F

Reading, Reading Regional Airport, PA (KRDG)

Overcast
56.0 F

Philadelphia, Philadelphia International Airport, PA (KPHL)

Overcast
58.0 F
Advertise Here

Advertise Here